TimeEST,TemperatureF,Dew PointF,Humidity,Sea Level PressureIn,VisibilityMPH,Wind Direction,Wind SpeedMPH,Gust SpeedMPH,PrecipitationIn,Events,Conditions,WindDirDegrees,DateUTC
12:33 AM,46.4,42.8,87,29.64,7.0,NNW,4.6,-,0.01,Rain,Light Rain,340,2012-12-11 05:33:00
12:45 AM,46.4,39.2,76,29.64,10.0,North,6.9,-,0.01,,Overcast,350,2012-12-11 05:45:00
12:54 AM,46.9,39.0,74,29.65,10.0,WNW,10.4,-,0.01,,Overcast,300,2012-12-11 05:54:00
1:54 AM,45.0,37.9,76,29.67,10.0,North,3.5,-,N/A,,Overcast,350,2012-12-11 06:54:00
2:54 AM,44.1,36.0,73,29.72,10.0,WNW,8.1,-,0.00,Rain,Light Rain,290,2012-12-11 07:54:00
3:54 AM,42.1,36.0,79,29.72,10.0,WNW,5.8,-,0.01,Rain,Light Rain,300,2012-12-11 08:54:00
4:25 AM,41.0,35.6,81,29.72,10.0,WNW,8.1,-,0.00,,Overcast,300,2012-12-11 09:25:00
4:49 AM,41.0,35.6,81,29.73,10.0,WNW,9.2,-,0.00,,Overcast,300,2012-12-11 09:49:00
4:54 AM,41.0,35.1,79,29.74,10.0,NNW,8.1,-,0.00,,Overcast,330,2012-12-11 09:54:00
5:54 AM,41.0,35.1,79,29.76,10.0,WNW,9.2,-,N/A,,Overcast,300,2012-12-11 10:54:00
6:54 AM,41.0,34.0,76,29.82,10.0,West,4.6,-,N/A,,Overcast,260,2012-12-11 11:54:00
7:54 AM,41.0,33.1,73,29.86,10.0,NW,8.1,-,N/A,,Mostly Cloudy,310,2012-12-11 12:54:00
8:54 AM,43.0,32.0,65,29.89,10.0,NNW,9.2,17.3,N/A,,Clear,340,2012-12-11 13:54:00
9:54 AM,43.0,30.0,60,29.88,10.0,NW,11.5,-,N/A,,Partly Cloudy,310,2012-12-11 14:54:00
10:54 AM,45.0,30.0,56,29.91,10.0,NW,9.2,-,N/A,,Partly Cloudy,320,2012-12-11 15:54:00
11:54 AM,45.0,28.0,52,29.91,10.0,NW,17.3,23.0,N/A,,Clear,310,2012-12-11 16:54:00
12:54 PM,43.0,27.0,53,29.94,10.0,NW,11.5,-,N/A,,Scattered Clouds,310,2012-12-11 17:54:00
1:54 PM,44.1,27.0,51,29.96,10.0,NNW,10.4,-,N/A,,Overcast,340,2012-12-11 18:54:00
2:54 PM,43.0,27.0,53,29.98,10.0,Calm,Calm,-,N/A,,Overcast,0,2012-12-11 19:54:00
3:54 PM,42.1,27.0,55,30.01,10.0,NW,6.9,-,N/A,,Overcast,310,2012-12-11 20:54:00
4:54 PM,42.1,25.0,51,30.04,10.0,WNW,6.9,-,N/A,,Overcast,300,2012-12-11 21:54:00
5:54 PM,41.0,26.1,55,30.07,10.0,NNW,5.8,-,N/A,,Overcast,330,2012-12-11 22:54:00
6:54 PM,39.9,26.1,58,30.10,10.0,WNW,3.5,-,N/A,,Overcast,300,2012-12-11 23:54:00
7:54 PM,39.0,26.1,60,30.12,10.0,West,3.5,-,N/A,,Overcast,270,2012-12-12 00:54:00
8:54 PM,35.1,27.0,72,30.15,10.0,WSW,3.5,-,N/A,,Mostly Cloudy,250,2012-12-12 01:54:00
9:54 PM,30.0,26.1,85,30.16,10.0,Calm,Calm,-,N/A,,Partly Cloudy,0,2012-12-12 02:54:00
10:54 PM,28.9,25.0,85,30.19,10.0,Calm,Calm,-,N/A,,Clear,0,2012-12-12 03:54:00
11:54 PM,28.0,25.0,88,30.19,10.0,Calm,Calm,-,N/A,,Clear,0,2012-12-12 04:54:00